Home   Weather   Ramallah   Past weeks
Flag for Palestinian Territories

Past Weather in Ramallah, West Bank, Palestinian Territories — Yesterday and Last 2 Weeks

Now
77 °F

Sunny.


Feels Like: 78 °F
Forecast: 74 / 54 °F
Wind: 3 mph from North

Location: Ben Gurion International Airport

Current Time: May 26, 2020 at 10:41:08 am

Latest Report: May 26, 2020 at 9:50 am


Visibility: 10 mi

Pressure: 30.01 "Hg (27.14 "Hg at 877m altitude)

Humidity: 36%

Dew Point: 48 °F

Location of RamallahLocation

Past Weather in Ramallah — Graph

°F

Ramallah Temperature Yesterday

Maximum temperature yesterday: 77 °F (at 1:20 pm)
Minimum temperature yesterday: 64 °F (at 3:50 am)
Average temperature yesterday: 70 °F

High & Low Weather Summary for the Past Weeks

 TemperatureHumidityPressure
High109 °F (May 17, 2:20 pm)94% (May 15, 5:20 am)30.07 "Hg (May 15, 5:20 am)
Low59 °F (May 12, 5:50 am)7% (May 19, 2:50 pm)29.71 "Hg (May 20, 3:20 pm)
Average81 °F46%29.87 "Hg
* Reported May 11 9:20 am — May 26 9:20 am, Ramallah. Weather by CustomWeather, © 2020

Note: Actual official high and low records may vary slightly from our data, if they occured in-between our weather recording intervals... More about our weather records

Ramallah Weather History for the Previous 24 Hours

Scroll right to see more
 ConditionsComfort  
Time TempWeatherWind HumidityBarometerVisibility
9:20 am
Tue, May 26
75 °FSunny.3 mph39%29.98 "Hg10 mi
8:50 am72 °FSunny.2 mph50%30.01 "Hg10 mi
8:20 am68 °FSunny.3 mph46%30.01 "Hg10 mi
7:50 am68 °FSunny.2 mph38%30.01 "Hg10 mi
7:20 am64 °FSunny.2 mph46%29.98 "Hg10 mi
6:50 am61 °FSunny.3 mph55%29.98 "Hg10 mi
6:20 am61 °FSunny.2 mph63%29.98 "Hg10 mi
5:50 am61 °FSunny.3 mph68%29.98 "Hg10 mi
5:20 am61 °FClear.3 mph68%29.98 "Hg10 mi
4:50 am61 °FClear.2 mph72%30.01 "Hg10 mi
4:20 am61 °FClear.2 mph72%30.01 "Hg10 mi
3:50 am61 °FClear.2 mph77%29.98 "Hg10 mi
3:20 am63 °FClear.2 mph73%30.01 "Hg10 mi
2:50 am63 °FClear.2 mph77%30.01 "Hg10 mi
2:20 am63 °FClear.2 mph73%30.01 "Hg10 mi
1:50 am64 °FClear.5 mph68%30.01 "Hg10 mi
1:20 am64 °FClear.2 mph73%30.01 "Hg10 mi
12:50 am66 °FClear.6 mph73%30.01 "Hg10 mi
12:20 am66 °FClear.2 mph73%30.01 "Hg10 mi
11:50 pm
Mon, May 25
68 °FClear.7 mph69%30.01 "Hg10 mi
11:20 pm68 °FClear.3 mph73%30.01 "Hg10 mi
10:50 pm68 °FClear.3 mph73%30.04 "Hg10 mi
10:20 pm68 °FClear.3 mph73%30.04 "Hg10 mi
9:50 pm68 °FClear.3 mph73%30.04 "Hg10 mi
9:20 pm68 °FClear.2 mph73%30.01 "Hg10 mi
8:50 pm68 °FClear.3 mph73%30.01 "Hg10 mi
8:20 pm70 °FClear.7 mph69%30.01 "Hg10 mi
7:50 pm70 °FClear.8 mph69%30.01 "Hg10 mi
7:20 pm72 °FSunny.8 mph61%30.01 "Hg10 mi
6:50 pm72 °FSunny.9 mph61%30.01 "Hg10 mi
6:20 pm73 °FSunny.10 mph53%30.01 "Hg10 mi
5:50 pm73 °FPassing clouds.10 mph53%30.01 "HgN/A
5:20 pm75 °FSunny.9 mph54%30.01 "Hg10 mi
4:50 pm75 °FSunny.12 mph44%30.01 "Hg10 mi
4:20 pm75 °FSunny.13 mph50%30.01 "Hg10 mi
3:50 pm75 °FPassing clouds.14 mph47%30.01 "HgN/A
3:20 pm75 °FPassing clouds.15 mph47%30.01 "HgN/A
2:50 pm75 °FPassing clouds.13 mph44%30.01 "HgN/A
2:20 pm75 °FPassing clouds.14 mph54%30.01 "HgN/A
1:50 pm77 °FPassing clouds.13 mph51%30.01 "HgN/A
1:20 pm77 °FPassing clouds.12 mph47%30.01 "HgN/A
12:50 pm75 °FPassing clouds.14 mph50%30.01 "HgN/A
12:20 pm75 °FScattered clouds.14 mph50%30.01 "HgN/A
11:50 am73 °FScattered clouds.15 mph50%30.01 "HgN/A
11:20 am73 °FScattered clouds.13 mph50%30.01 "HgN/A
10:50 am73 °FScattered clouds.14 mph50%30.01 "HgN/A
10:20 am73 °FScattered clouds.13 mph50%30.01 "HgN/A
Weather by CustomWeather, © 2020

See weather overview

Advertising